{"data":{"norad_id":53414,"epoch":"2026-05-25T03:15:45.145152Z","epoch_age_seconds":63025,"freshness":"FRESH","line1":"1 53414U 22097AC  26145.13593918  .00001324  00000+0  10126-3 0  9996","line2":"2 53414  53.2120 130.9393 0000541  90.2953 269.8101 15.08844016210184","mean_motion":15.08844016,"eccentricity":5.41e-5,"inclination_deg":53.212,"raan_deg":130.9393,"arg_perigee_deg":90.2953,"mean_anomaly_deg":269.8101,"bstar":0.00010126,"rev_number":21018,"period_min":95.437300657327,"perigee_km":539.35685702101,"apogee_km":540.10537035091,"semimajor_km":6917.868113686,"source":"CELESTRAK","updated_at":"2026-05-25T13:38:17.401527Z"}}